Wind_Speed
20 21 20 19 20 19 20 19 18 19 20 19 20 20 19 17 18 18 17 17 16 15 15 15 14 13 13 13 14 14 13 12 11 11 10 11 11 9 5 5 7 5
21 21 20 19 19 18 19 19 18 18 18 18 18 18 18 17 18 19 18 17 16 15 16 16 14 14 14 14 13 13 13 12 11 11 11 11 10 9 7 6 6 5
23 22 21 20 20 19 19 19 18 17 17 17 16 16 17 16 17 19 18 17 17 16 16 16 15 14 14 14 14 14 14 14 13 11 11 12 10 10 9 7 7 7
25 24 23 22 21 20 19 18 18 17 17 17 16 15 16 15 16 18 17 16 17 16 16 16 15 15 14 13 13 14 14 14 14 12 11 12 11 11 10 8 8 9
25 25 25 23 21 20 19 19 19 18 17 17 16 15 16 16 16 17 18 17 16 16 16 15 15 14 15 14 13 13 14 13 13 12 12 12 12 12 11 10 9 9
26 25 25 24 22 21 21 20 19 19 18 18 17 15 15 16 17 18 18 17 16 17 17 16 15 15 15 14 13 13 12 12 12 12 12 12 11 12 12 10 10 9
27 26 24 24 23 22 22 21 20 19 18 18 18 18 17 16 17 20 19 17 17 17 17 16 16 15 15 15 14 13 13 12 12 12 12 12 11 11 11 11 10 10
27 27 25 24 23 22 22 22 22 21 20 19 19 19 19 17 18 20 20 19 19 19 18 17 17 16 16 16 15 15 15 13 12 13 13 13 12 11 12 12 11 11
26 27 26 24 24 22 21 22 23 22 21 20 20 20 20 20 19 20 20 19 20 20 20 20 19 18 17 17 16 15 16 15 14 14 13 13 14 13 13 13 12 11
25 26 26 25 24 23 22 22 23 23 22 22 22 21 22 22 22 21 21 21 20 20 21 21 22 21 19 18 18 17 16 16 15 15 14 14 15 15 14 13 12 12
23 23 25 25 26 24 23 23 22 23 23 23 23 23 22 23 24 24 22 23 23 22 22 22 22 23 22 21 20 19 18 17 16 16 16 15 16 16 15 14 13 13
19 18 18 21 24 25 23 23 23 23 23 24 24 24 23 23 24 26 25 24 25 24 24 24 23 23 23 23 22 21 20 18 17 17 17 17 17 16 14 14 15 15
15 17 15 14 18 21 21 19 19 21 22 25 26 25 24 24 24 26 27 26 27 26 26 25 25 24 23 23 23 22 22 21 20 19 18 18 18 17 16 16 17 17
10 14 15 13 12 15 17 16 14 14 15 18 25 28 26 24 24 26 28 28 28 28 28 27 27 27 25 24 24 23 23 23 22 21 21 20 21 21 20 19 19 19
8 9 13 14 12 11 14 16 13 12 10 9 14 25 30 27 25 25 27 29 29 29 30 30 29 29 29 28 27 26 25 25 24 24 23 23 23 22 22 21 21 20
5 3 6 9 11 11 12 13 13 15 14 10 10 13 22 29 29 26 26 29 31 30 30 31 31 30 30 30 30 29 28 27 26 25 25 25 24 24 23 23 22 22
12 9 6 3 4 7 8 9 11 13 13 11 12 13 11 18 26 29 28 28 30 32 32 31 32 32 31 31 31 32 31 30 29 27 26 26 26 26 25 25 24 23
16 15 13 11 7 3 5 6 6 6 7 10 15 16 11 11 17 24 30 30 29 30 32 33 34 33 32 32 31 32 32 32 32 30 28 27 28 28 28 27 26 26
15 16 16 15 15 10 4 3 3 3 8 13 20 23 19 15 15 16 21 27 30 31 32 33 35 35 34 33 32 32 32 33 33 33 31 30 29 29 30 30 29 28
14 16 16 15 14 14 9 4 4 5 9 13 19 22 19 17 18 16 13 16 21 26 30 33 34 35 36 35 33 32 32 33 34 34 34 33 32 31 31 31 32 32
16 14 14 14 12 12 11 8 6 6 9 11 14 16 15 15 18 19 17 15 15 17 23 29 32 31 32 35 36 34 33 33 35 36 35 35 34 34 32 32 33 34
19 16 15 14 13 11 10 10 9 8 8 9 11 13 13 13 15 18 21 21 19 16 18 23 29 30 28 29 32 35 36 36 36 38 38 36 36 35 35 34 33 34
18 17 16 14 13 11 10 10 10 11 10 9 10 13 13 13 14 16 19 23 24 22 20 19 22 26 27 26 26 29 35 39 40 39 39 39 38 37 36 35 34 34
14 14 13 12 13 13 13 12 12 12 12 11 12 13 14 14 14 15 18 21 23 25 24 19 15 16 21 24 25 24 28 35 40 41 40 40 40 39 39 38 37 36
13 13 14 13 13 14 15 15 15 14 14 14 14 14 14 14 14 16 17 19 20 22 22 18 17 20 25 29 30 28 27 28 33 38 40 40 39 39 39 39 40 39
13 14 16 15 15 15 15 16 16 16 16 16 16 15 15 14 15 15 17 18 19 20 19 19 24 30 32 30 28 28 29 28 28 32 36 38 39 38 38 38 39 40
Wind_Direction
189 189 183 181 186 185 184 183 184 187 187 190 194 194 198 197 192 197 197 191 195 197 193 194 196 198 200 197 193 192 195 195 194 199 197 197 201 192 195 222 227 258
191 192 189 186 186 188 189 187 188 192 193 195 199 200 202 201 199 203 201 192 193 197 195 197 202 200 194 192 190 188 190 192 197 206 204 203 206 201 204 218 220 246
193 194 194 191 189 189 191 192 192 194 196 198 200 200 202 205 205 205 205 197 194 199 201 201 204 201 193 195 197 192 192 195 200 206 206 206 208 208 214 225 222 232
197 196 196 195 193 193 194 195 194 194 198 199 200 200 202 207 207 203 205 203 198 202 205 204 206 203 198 202 206 204 203 203 203 205 207 209 213 214 217 228 230 233
201 199 199 198 196 197 197 198 197 197 200 199 198 200 201 204 205 202 205 206 203 207 209 208 208 203 199 205 211 210 208 208 205 205 211 212 213 218 219 225 235 240
202 202 202 200 199 199 199 201 202 201 202 201 198 197 200 206 206 203 206 206 206 212 212 208 208 206 203 207 213 212 208 210 209 209 216 214 214 222 222 224 238 247
203 203 203 202 202 204 204 203 204 204 202 204 204 201 201 209 209 204 205 206 207 213 214 212 211 210 209 211 214 214 212 215 217 217 222 220 216 223 224 228 241 244
205 203 204 204 204 209 209 205 205 206 204 206 209 205 204 208 207 203 207 211 211 213 215 217 217 212 212 216 219 217 215 219 222 222 225 225 224 228 228 232 239 237
205 204 204 206 207 210 212 207 205 208 207 208 210 208 208 210 208 205 209 215 218 217 217 220 220 216 214 217 221 222 220 221 224 227 229 227 226 232 236 238 241 239
202 204 203 206 209 211 214 210 207 209 210 211 211 210 212 214 213 211 212 217 219 219 220 222 222 219 216 217 220 225 226 224 224 228 233 232 228 231 237 239 241 243
194 200 201 205 210 211 215 215 210 211 212 212 212 212 214 216 217 216 216 218 220 220 221 224 224 221 218 217 219 224 230 230 226 227 233 237 235 233 234 236 239 242
188 194 198 204 209 209 214 217 216 215 213 212 213 214 215 217 219 219 219 220 222 223 223 224 226 226 223 220 219 222 228 231 229 228 232 237 237 234 232 235 238 242
200 200 205 204 207 209 212 216 217 219 219 215 212 213 216 219 220 220 222 224 224 225 226 227 227 228 227 224 221 222 225 229 230 230 231 234 235 233 233 235 238 241
240 221 225 223 218 216 217 219 219 223 230 226 217 212 214 220 223 221 221 224 227 228 228 229 230 229 229 229 227 225 225 227 229 230 231 233 235 235 236 237 239 240
273 244 241 241 240 233 226 226 228 234 249 262 235 218 214 216 223 225 222 221 225 230 230 228 229 230 231 233 233 230 228 228 230 230 230 233 237 239 239 239 241 241
351 306 260 251 251 252 244 236 237 241 249 282 305 259 225 217 218 223 226 223 222 225 229 227 227 230 233 235 236 235 232 229 230 232 232 233 237 240 240 240 241 242
30 25 19 354 272 262 266 262 256 251 248 260 289 297 268 231 222 220 223 226 223 222 225 225 226 229 233 235 236 237 235 233 232 234 234 234 235 237 240 241 241 242
39 35 31 30 22 336 290 293 287 263 241 237 246 258 265 249 235 226 222 225 224 221 222 224 226 229 232 235 236 237 237 237 235 235 235 236 235 236 238 240 242 242
40 38 32 29 27 22 350 313 327 261 238 234 235 239 240 234 236 238 233 230 227 223 221 224 228 229 230 232 235 237 238 238 237 237 237 238 239 239 239 239 241 242
35 37 31 23 21 22 15 336 306 275 259 249 241 243 248 243 240 246 255 252 243 234 226 224 227 231 232 232 233 236 238 238 237 237 237 238 240 241 241 241 241 242
31 34 30 19 11 12 12 2 335 296 276 265 255 258 266 261 252 252 257 264 269 260 244 233 229 230 233 234 234 236 237 238 237 236 236 238 239 240 242 243 243 244
26 26 21 13 5 359 359 1 355 331 303 283 273 275 277 271 262 255 252 253 258 264 262 250 241 237 237 238 238 238 238 238 237 236 235 236 237 239 240 242 245 246
21 19 11 1 357 352 348 350 351 344 332 313 295 291 292 290 282 268 258 257 256 256 260 263 258 251 248 250 250 245 240 238 237 236 235 235 237 239 239 240 242 245
15 11 2 352 350 350 348 346 345 341 337 329 318 309 302 296 290 279 268 264 264 264 266 276 287 271 254 252 255 253 246 241 239 237 236 236 238 239 240 240 241 243
6 0 356 350 346 346 350 349 346 342 340 338 334 327 316 302 290 284 279 275 275 278 278 282 284 267 249 244 246 249 251 250 245 239 237 238 239 240 241 242 242 244
0 354 353 352 348 345 349 351 347 343 342 342 340 335 326 313 299 291 289 286 285 287 285 277 269 261 254 252 253 252 253 256 253 245 240 240 240 240 241 243 244 245
Height
846 848 849 851 852 853 855 856 858 859 860 861 862 863 864 865 865 866 867 867 868 869 869 869 870 870 870 871 871 871 871 871 871 872 872 872 873 873 873 873 873 873
845 847 849 850 851 853 854 856 857 858 860 861 862 863 864 865 866 866 867 867 868 868 869 869 870 870 870 870 871 871 871 871 871 872 872 872 872 872 872 873 873 873
845 846 847 849 850 852 853 855 857 858 859 860 861 863 864 865 866 866 867 867 868 868 869 869 869 870 870 870 871 871 871 871 871 871 872 872 872 872 872 873 873 873
843 844 846 847 849 850 852 853 855 856 858 859 860 862 863 864 865 866 867 868 868 869 869 869 869 870 870 870 871 871 871 871 871 871 872 872 872 872 872 872 872 873
842 843 844 846 847 849 851 852 853 854 856 858 859 861 862 863 864 865 866 867 868 869 869 869 869 869 870 870 870 870 870 871 871 871 871 871 872 872 871 872 872 872
841 842 843 844 846 847 849 850 851 852 854 856 857 859 860 861 863 864 865 866 867 869 869 869 869 869 870 870 870 870 870 870 870 870 871 871 871 871 871 871 871 871
839 840 841 843 844 845 846 848 849 850 852 854 855 857 858 860 861 862 864 865 866 868 868 869 869 869 869 870 870 870 870 870 870 870 870 871 871 871 871 871 871 871
838 839 840 841 842 844 844 845 847 848 850 852 853 854 856 857 859 860 862 864 865 866 867 868 868 868 869 869 869 869 869 869 870 869 870 870 870 870 870 870 870 870
837 837 838 840 841 842 843 843 845 846 848 849 850 852 854 855 857 858 860 861 863 864 865 866 867 867 868 868 868 869 869 869 869 869 869 869 869 869 869 869 869 870
834 835 836 838 839 840 841 842 843 844 846 847 848 850 852 853 855 856 858 859 861 862 863 864 865 866 867 867 867 867 868 868 868 868 868 868 868 868 868 868 868 869
832 833 834 835 836 838 839 840 841 842 843 845 846 848 849 851 853 854 856 857 858 860 862 863 864 864 865 866 866 866 866 866 867 867 867 866 867 867 867 867 867 867
829 831 832 832 833 835 837 839 840 840 841 842 844 846 847 849 850 852 854 855 857 858 860 861 862 863 864 864 865 865 865 865 865 865 865 865 865 865 865 865 865 866
826 828 829 830 831 832 834 836 838 839 840 841 842 843 845 847 848 849 851 853 854 856 858 859 860 861 862 863 863 864 864 864 864 864 864 864 864 864 864 864 864 864
826 825 827 828 830 832 833 834 836 838 839 840 841 841 842 844 846 847 848 850 852 853 855 857 859 860 861 861 862 862 863 862 862 862 862 862 862 862 862 862 862 862
827 825 825 827 829 831 832 834 835 837 838 840 841 840 840 841 843 845 846 847 849 851 853 855 856 857 859 860 860 861 861 861 860 860 860 860 860 860 860 860 860 860
827 825 825 827 828 830 831 832 833 835 837 839 840 839 838 838 840 841 843 844 846 847 849 851 853 854 856 857 858 858 859 859 859 858 858 858 858 858 858 858 858 858
826 825 826 826 827 829 830 831 832 833 834 835 835 836 836 836 836 837 839 841 843 844 846 848 849 851 852 854 855 856 857 857 857 857 856 856 856 856 856 856 856 856
825 825 826 827 827 828 829 830 831 831 830 829 829 831 832 832 833 833 835 837 838 840 842 844 845 847 849 850 852 853 854 854 855 855 854 854 854 853 853 853 853 854
825 825 826 828 828 828 828 829 830 829 827 825 825 825 827 828 830 831 832 834 835 837 839 840 842 843 845 846 848 849 850 851 852 852 852 852 852 851 851 851 851 851
825 823 825 828 829 829 829 828 828 827 825 824 822 822 825 828 829 830 831 833 834 835 836 837 838 840 842 843 844 845 846 847 848 848 848 849 849 848 848 848 848 848
824 822 824 827 829 829 828 827 826 825 824 823 822 823 825 826 827 828 830 832 833 834 835 835 836 838 839 841 842 842 843 843 843 844 844 844 844 845 845 845 845 845
823 822 823 826 828 828 827 826 825 823 823 823 822 822 823 824 824 826 827 829 831 832 833 833 834 836 837 838 839 840 840 839 839 839 839 840 840 840 841 841 841 842
824 824 825 826 828 828 826 824 823 822 822 822 821 822 822 823 823 823 825 826 828 829 831 832 833 834 834 834 835 836 837 836 836 836 836 835 835 836 836 837 838 838
829 829 829 829 829 828 826 824 822 821 821 820 821 821 822 822 823 822 823 824 825 827 829 831 832 832 831 830 830 831 832 832 832 832 832 831 831 832 832 833 833 834
831 831 830 829 828 827 826 825 823 821 821 820 821 821 821 822 822 822 822 822 823 826 827 829 830 829 826 824 824 826 828 829 830 830 829 828 828 828 829 829 829 829
830 830 829 827 827 826 825 825 823 822 821 820 821 821 821 821 821 820 820 820 821 823 825 825 825 823 821 822 824 827 827 827 827 826 825 825 824 824 824 824 824 825